Regional Weather Roundup
Issued by NWS

Home | Current Version | Previous Version | Graphics & Text | Print | Product List | Glossary On
Versions: 1 2 3 4 5 6 7 8 9 10 11 12 13 14 15 16 17 18 19 20 21 22 23 24 25 26 27 28 29 30 31 32 33 34 35 36 37 38 39 40 41 42 43 44 45 46 47 48 49 50
000
ASUS44 KFWD 260403
RWRTX
NORTH TEXAS HOURLY WEATHER ROUNDUP
NATIONAL WEATHER SERVICE FORT WORTH TX
1000 PM CST WED NOV 25 2020

NOTE: "FAIR" INDICATES FEW OR NO CLOUDS BELOW 12,000 FEET WITH NO
SIGNIFICANT WEATHER AND/OR OBSTRUCTIONS TO VISIBILITY.

TXZ118-119-260500-
DALLAS/FORT WORTH METROPLEX

CITY           SKY/WX    TMP DP  RH WIND       PRES   REMARKS
DFW AIRPORT    FAIR      46  36  68 S7        30.04S
DALLAS LOVE    FAIR      50  36  58 SE3       30.06S
FTW MEACHAM    FAIR      50  34  54 CALM      30.05S
DAL-EXECUTIVE  FAIR      50  32  50 S6        30.06S
FTW-ALLIANCE   FAIR      50  33  52 S5        30.05S
FTW-NAS-JRB    FAIR      50  35  56 CALM      30.06S
FTW-SPINKS     FAIR      41  35  78 CALM      30.08S
ARLINGTON      FAIR      43  38  82 CALM      30.06S
GRAND PRAIRIE  FAIR      48  37  64 CALM      30.08S
ADDISON        FAIR      49  33  53 CALM      30.08R
MESQUITE       FAIR      43  35  72 S5        30.07S
LANCASTER      FAIR      44  37  77 CALM      30.08S
$$

TXZ091>094-102>105-117-120-121-131>134-260500-
NORTH CENTRAL TEXAS

CITY           SKY/WX    TMP DP  RH WIND       PRES   REMARKS
SHRMAN/DENISON FAIR      48  32  53 SE3       30.08R
BOWIE          FAIR      40  35  83 CALM      30.05S
BRIDGEPORT     FAIR      38  31  75 CALM      30.07S
DECATUR        FAIR      51  28  40 SE6       30.05S
DENTON         FAIR      42  35  76 CALM      30.06S
MCKINNEY       FAIR      43  35  73 CALM      30.07R
BONHAM         FAIR      42  37  83 CALM      30.08R
GREENVILLE     FAIR      41  37  87 CALM      30.07S
ROCKWALL       FAIR      49  33  55 SE5       30.07S
TERRELL        FAIR      42  37  82 CALM      30.08R
WAXAHACHIE     FAIR      44  35  71 CALM      30.08S
CLEBURNE       CLEAR     50  32  50 SE6       30.07S
GRANBURY       FAIR      46  38  73 CALM      30.07S
$$

TXZ083>090-098>101-113>116-127>130-139>142-154-155-260500-
WESTERN NORTH TEXAS

CITY           SKY/WX    TMP DP  RH WIND       PRES   REMARKS
WICHITA FALLS  FAIR      39  28  64 SE6       30.02S WCI  35
WF-KICKAPOO    FAIR      44  35  70 S8        30.04S WCI  39
VERNON         FAIR      46  28  49 SE9       30.00S
ABILENE        FAIR      47  28  47 SE8       30.03S
ABILENE-DYESS  FAIR      45  23  41 S3        30.01S
BRECKENRIDGE   FAIR      49  27  42 SE6       30.03S
CISCO          FAIR      46  28  49 S9        30.03R
EASTLAND       FAIR      37  28  70 CALM      30.05S
RANGER         FAIR      51  30  44 S7        30.05S
MINERAL WELLS  FAIR      45  33  63 SE8       30.04R
STEPHENVILLE   FAIR      48  34  58 S3        30.09R
COMANCHE       FAIR      48  35  60 S5        30.06S
COLEMAN          N/A     50  29  44 S3        30.06R
BRADY          CLOUDY    52  28  40 SE6       30.05S
$$

TXZ143>147-156>162-174-175-260500-
CENTRAL TEXAS

CITY           SKY/WX    TMP DP  RH WIND       PRES   REMARKS
WACO           FAIR      47  40  76 CALM      30.07F HAZE
WACO-TSTC      CLEAR     45  39  81 CALM      30.08S
WACO-MCGREGOR    N/A     49  40  71 CALM      30.08S
HILLSBORO      FAIR      48  39  70 SE5       30.07S
CORSICANA      FAIR      51  39  63 S3        30.09R
MEXIA          FAIR      53  37  55 CALM      30.08S
HEARNE         FAIR      46  43  90 CALM      30.10S
CAMERON        FAIR      50  43  75 CALM      30.09S
TEMPLE         FAIR      51  39  63 SE3       30.08S
KILLEEN        CLEAR     52  39  60 S6        30.06S
KILLEEN-SKYLRK FAIR      50  41  71 S6        30.08S
FORT HOOD      FAIR      50  39  65 SE6       30.08R
GATESVILLE     FAIR      48  37  66 CALM      30.09S
HAMILTON       FAIR      48  36  63 S7        30.07S HAZE
$$

TXZ095>097-106>112-122>126-135>138-148>153-164>167-260500-
EAST TEXAS

CITY           SKY/WX    TMP DP  RH WIND       PRES   REMARKS
PARIS          FAIR      42  37  82 S5        30.07S WCI  39
SULPHUR SPRNGS FAIR      44  39  85 CALM      30.09S
MOUNT PLEASANT FAIR      44  41  91 CALM      30.10R
GILMER         FAIR      42  40  91 CALM      30.08S
MINEOLA        FAIR      39  39 100 CALM      30.08S
TYLER          FAIR      47  42  83 CALM      30.07S
LONGVIEW       FAIR      44  40  85 CALM      30.07S
MARSHALL       FAIR      40  39  95 CALM      30.10S
ATHENS         FAIR      43  39  87 CALM      30.07S
PALESTINE      FAIR      43  42  99 CALM      30.09S
JACKSONVILLE   FAIR      51  39  65 CALM      30.09S
HENDERSON      FAIR      41  40  96 CALM      30.09S
CENTER         FAIR      45  43  93 CALM      30.10S
NACOGDOCHES    FAIR      44  42  93 CALM      30.09S
LUFKIN         FAIR      47  44  90 CALM      30.08S
$$

SUPPLEMENTAL OBSERVATIONS (NWS FORT WORTH AREA)

CITY           SKY/WX    TMP DP  RH WIND       PRES   REMARKS
$$

SUPPLEMENTAL OBSERVATIONS (NWS NORMAN AREA)

CITY           SKY/WX    TMP DP  RH WIND       PRES   REMARKS
GOODLETT         N/A     44  27  50 SE8         N/A  WCI  40
ODELL            N/A     47  26  43 SE10        N/A
CROWELL          N/A     46  27  48 S7          N/A
KNOX CITY        N/A     46  29  50 SE9         N/A
SEYMOUR          N/A     43  28  55 SE3         N/A
$$

SUPPLEMENTAL OBSERVATIONS (NWS SAN ANGELO AREA)

CITY           SKY/WX    TMP DP  RH WIND       PRES   REMARKS
WEINERT          N/A     48  25  40 SE10        N/A
HASKELL          N/A     51  29  42 SE8         N/A
THROCKMORTON     N/A     45  26  48 SE6         N/A
STAMFORD         N/A     44  26  49 S7          N/A  WCI  39
CLYDE            N/A     51  27  39 SE12        N/A
$$

SUPPLEMENTAL OBSERVATIONS (NWS SHREVEPORT AREA)

CITY           SKY/WX    TMP DP  RH WIND       PRES   REMARKS
$$

SUPPLEMENTAL OBSERVATIONS ARE A COLLECTION OF AUTOMATED INSTRUMENTS
THAT ARE MAINTAINED BY A VARIETY OF FEDERAL AND STATE AGENCIES.
CERTAIN ELEMENTS...SUCH AS HUMIDITY VALUES AND SUSTAINED WIND
SPEEDS...MAY BE APPROXIMATED.




USA.gov is the U.S. government's official web portal to all federal, state and local government web resources and services.